Weather History for Mena, AR

Change the Weather History Date:

Sunday, May 19, 2013

  Actual Average (KFSM) Record (KFSM)
Temperature  
Mean Temperature 80 °F -  
Max Temperature 87 °F 79 °F 96 °F (1956)
Min Temperature 73 °F 58 °F 45 °F (1894)
Cooling Degree Days 15    
Growing Degree Days 30 (Base 50)    
Moisture  
Dew Point 65 °F    
Average Humidity 60    
Maximum Humidity 78    
Minimum Humidity 43    
Precipitation  
Precipitation 0.00 in - - ()
Sea Level Pressure  
Sea Level Pressure 29.84 in    
Wind  
Wind Speed 9 mph (South)    
Max Wind Speed 16 mph    
Max Gust Speed 25 mph    
Visibility 10 miles    
Events      
Averages and records for this station are not official NWS values.
T = Trace of Precipitation, MM = Missing Value Source: NWS Daily Summary

Daily Weather History Graph

Daily Weather History Graph

Search for Another Location

Airport:

Trip Planner

Search our weather history database for the weather conditions in past years. The results will help you decide how hot, cold, wet, or windy it might be!

Date:

Astronomy

May. 19, 2013 Rise Set
Actual Time 6:11 AM CDT 8:15 PM CDT
Civil Twilight 5:43 AM CDT 8:43 PM CDT
Nautical Twilight 5:08 AM CDT 9:18 PM CDT
Astronomical Twilight 4:31 AM CDT 9:55 PM CDT
Moon 2:34 PM CDT (5/19) 2:19 AM CDT (5/19)
Length of Visible Light 15h 00m
Length of Day
14h 04m
Waxing Gibbous, 65% of the Moon is Illuminated
May 19
Waxing Gibbous
May 24
Full
May 31
Last Quarter
Jun 8
New
Jun 16
First Quarter

Hourly Weather History & Observations

Time (CDT) Temp. Heat Index Dew Point Humidity Pressure Visibility Wind Dir Wind Speed Gust Speed Precip Events Conditions
12:15 AM 80.6 °F 83.9 °F 69.8 °F 70% 29.88 in 10.0 mi South 6.9 mph 18.4 mph N/A   Clear
12:35 AM 80.6 °F 83.9 °F 69.8 °F 70% 29.88 in 10.0 mi South 8.1 mph 21.9 mph N/A   Clear
12:55 AM 80.6 °F 83.9 °F 69.8 °F 70% 29.87 in 10.0 mi South 8.1 mph 19.6 mph N/A   Clear
1:15 AM 80.6 °F 83.9 °F 69.8 °F 70% 29.88 in 10.0 mi South 4.6 mph - N/A   Clear
1:35 AM 80.6 °F 83.9 °F 69.8 °F 70% 29.88 in 10.0 mi South 6.9 mph 18.4 mph N/A   Clear
1:55 AM 78.8 °F - 69.8 °F 74% 29.88 in 10.0 mi South 8.1 mph - N/A   Clear
2:15 AM 78.8 °F - 69.8 °F 74% 29.88 in 10.0 mi SSW 8.1 mph 17.3 mph N/A   Clear
2:35 AM 78.8 °F - 69.8 °F 74% 29.89 in 10.0 mi SSW 9.2 mph 19.6 mph N/A   Clear
2:55 AM 77.0 °F - 69.8 °F 78% 29.88 in 10.0 mi SSW 6.9 mph - N/A   Clear
3:35 AM 77.0 °F - 69.8 °F 78% 29.87 in 10.0 mi South 8.1 mph - N/A   Clear
3:55 AM 77.0 °F - 68.0 °F 74% 29.86 in 10.0 mi SSW 11.5 mph 19.6 mph N/A   Clear
4:15 AM 77.0 °F - 68.0 °F 74% 29.87 in 10.0 mi SW 6.9 mph 17.3 mph N/A   Clear
4:35 AM 77.0 °F - 66.2 °F 69% 29.87 in 10.0 mi SSW 5.8 mph - N/A   Clear
4:55 AM 75.2 °F - 66.2 °F 73% 29.86 in 10.0 mi SSW 11.5 mph 18.4 mph N/A   Clear
5:15 AM 75.2 °F - 64.4 °F 69% 29.86 in 10.0 mi SW 9.2 mph 17.3 mph N/A   Clear
5:35 AM 75.2 °F - 64.4 °F 69% 29.87 in 10.0 mi SSW 6.9 mph - N/A   Clear
5:55 AM 75.2 °F - 62.6 °F 65% 29.87 in 10.0 mi SSW 5.8 mph 19.6 mph N/A   Clear
6:15 AM 73.4 °F - 62.6 °F 69% 29.88 in 10.0 mi SSW 6.9 mph - N/A   Clear
6:35 AM 73.4 °F - 62.6 °F 69% 29.87 in 10.0 mi SSW 9.2 mph 17.3 mph N/A   Clear
6:55 AM 73.4 °F - 62.6 °F 69% 29.88 in 10.0 mi SSW 8.1 mph - N/A   Clear
7:15 AM 73.4 °F - 62.6 °F 69% 29.89 in 10.0 mi SSW 6.9 mph 18.4 mph N/A   Clear
7:35 AM 73.4 °F - 62.6 °F 69% 29.89 in 10.0 mi SSW 10.4 mph 16.1 mph N/A   Clear
7:55 AM 75.2 °F - 64.4 °F 69% 29.89 in 10.0 mi SSW 10.4 mph 17.3 mph N/A   Clear
8:15 AM 75.2 °F - 64.4 °F 69% 29.89 in 10.0 mi SSW 9.2 mph 24.2 mph N/A   Clear
8:35 AM 77.0 °F - 64.4 °F 65% 29.89 in 10.0 mi SSW 6.9 mph 17.3 mph N/A   Clear
8:55 AM 77.0 °F - 64.4 °F 65% 29.90 in 7.0 mi SSW 8.1 mph 16.1 mph N/A   Clear
9:15 AM 77.0 °F - 64.4 °F 65% 29.90 in 10.0 mi SSW 13.8 mph 23.0 mph N/A   Clear
9:35 AM 78.8 °F - 64.4 °F 61% 29.89 in 10.0 mi SSW 9.2 mph - N/A   Clear
9:55 AM 78.8 °F - 62.6 °F 57% 29.89 in 10.0 mi SSW 6.9 mph - N/A   Clear
10:15 AM 78.8 °F - 62.6 °F 57% 29.89 in 10.0 mi SSW 6.9 mph 21.9 mph N/A   Clear
10:35 AM 78.8 °F - 64.4 °F 61% 29.89 in 10.0 mi SSW 10.4 mph 19.6 mph N/A   Clear
10:55 AM 80.6 °F 82.3 °F 64.4 °F 58% 29.88 in 10.0 mi SSW 9.2 mph 17.3 mph N/A   Clear
11:15 AM 80.6 °F 82.3 °F 64.4 °F 58% 29.89 in 10.0 mi South 12.7 mph 21.9 mph N/A   Clear
11:35 AM 80.6 °F 82.3 °F 64.4 °F 58% 29.89 in 10.0 mi South 9.2 mph 19.6 mph N/A   Clear
11:55 AM 80.6 °F 82.3 °F 64.4 °F 58% 29.88 in 10.0 mi South 10.4 mph 17.3 mph N/A   Clear
12:15 PM 80.6 °F 82.3 °F 64.4 °F 58% 29.87 in 10.0 mi South 10.4 mph 20.7 mph N/A   Clear
12:35 PM 82.4 °F 83.9 °F 64.4 °F 54% 29.86 in 10.0 mi SSW 8.1 mph 16.1 mph N/A   Clear
12:55 PM 82.4 °F 83.9 °F 64.4 °F 54% 29.86 in 10.0 mi South 4.6 mph - N/A   Clear
1:15 PM 84.2 °F 85.6 °F 64.4 °F 51% 29.85 in 10.0 mi SSW 9.2 mph 17.3 mph N/A   Clear
1:35 PM 86.0 °F 87.3 °F 64.4 °F 48% 29.85 in 10.0 mi South 11.5 mph 20.7 mph N/A   Clear
1:55 PM 86.0 °F 87.3 °F 64.4 °F 48% 29.84 in 10.0 mi South 8.1 mph 17.3 mph N/A   Clear
2:15 PM 86.0 °F 87.3 °F 64.4 °F 48% 29.83 in 10.0 mi SSE 10.4 mph 20.7 mph N/A   Clear
2:35 PM 86.0 °F 87.3 °F 64.4 °F 48% 29.82 in 10.0 mi SSW 10.4 mph 18.4 mph N/A   Clear
2:55 PM 86.0 °F 87.3 °F 64.4 °F 48% 29.81 in 10.0 mi SSE 9.2 mph 24.2 mph N/A   Clear
3:15 PM 87.8 °F 89.4 °F 64.4 °F 46% 29.81 in 10.0 mi South 8.1 mph 17.3 mph N/A   Clear
3:35 PM 87.8 °F 89.4 °F 64.4 °F 46% 29.81 in 10.0 mi SSE 10.4 mph 17.3 mph N/A   Clear
3:55 PM 87.8 °F 89.4 °F 64.4 °F 46% 29.80 in 10.0 mi South 16.1 mph 24.2 mph N/A   Clear
4:15 PM 87.8 °F 88.5 °F 62.6 °F 43% 29.80 in 10.0 mi SSE 8.1 mph 18.4 mph N/A   Clear
4:35 PM 87.8 °F 89.4 °F 64.4 °F 46% 29.79 in 10.0 mi SSE 13.8 mph 25.3 mph N/A   Clear
4:55 PM 87.8 °F 89.4 °F 64.4 °F 46% 29.79 in 10.0 mi South 6.9 mph 23.0 mph N/A   Clear
5:15 PM 87.8 °F 89.4 °F 64.4 °F 46% 29.78 in 10.0 mi SSE 10.4 mph 19.6 mph N/A   Clear
5:35 PM 87.8 °F 89.4 °F 64.4 °F 46% 29.77 in 10.0 mi SSE 13.8 mph 25.3 mph N/A   Clear
5:55 PM 87.8 °F 90.4 °F 66.2 °F 49% 29.76 in 10.0 mi SSE 12.7 mph 21.9 mph N/A   Clear
6:15 PM 86.0 °F 88.2 °F 66.2 °F 51% 29.77 in 10.0 mi SSE 12.7 mph 23.0 mph N/A   Clear
6:35 PM 86.0 °F 87.3 °F 64.4 °F 48% 29.76 in 10.0 mi SSE 13.8 mph 21.9 mph N/A   Clear
6:55 PM 86.0 °F 87.3 °F 64.4 °F 48% 29.77 in 10.0 mi SSE 8.1 mph 18.4 mph N/A   Clear
7:15 PM 84.2 °F 86.6 °F 66.2 °F 55% 29.78 in 10.0 mi SSE 10.4 mph 20.7 mph N/A   Clear
7:35 PM 84.2 °F 86.6 °F 66.2 °F 55% 29.78 in 10.0 mi SE 10.4 mph 19.6 mph N/A   Clear
7:55 PM 82.4 °F 84.6 °F 66.2 °F 58% 29.79 in 10.0 mi SSE 12.7 mph 21.9 mph N/A   Clear
8:15 PM 82.4 °F 84.6 °F 66.2 °F 58% 29.80 in 10.0 mi SE 9.2 mph 23.0 mph N/A   Clear
8:35 PM 82.4 °F 84.6 °F 66.2 °F 58% 29.80 in 10.0 mi SE 10.4 mph 19.6 mph N/A   Clear
8:55 PM 82.4 °F 84.6 °F 66.2 °F 58% 29.81 in 10.0 mi SE 6.9 mph 19.6 mph N/A   Clear
9:35 PM 82.4 °F 83.9 °F 64.4 °F 54% 29.81 in 10.0 mi SSE 10.4 mph 19.6 mph N/A   Clear
9:55 PM 82.4 °F 83.9 °F 64.4 °F 54% 29.81 in 10.0 mi SSE 10.4 mph 25.3 mph N/A   Clear
10:15 PM 82.4 °F 83.9 °F 64.4 °F 54% 29.82 in 10.0 mi SSE 9.2 mph 23.0 mph N/A   Clear
10:35 PM 80.6 °F 82.3 °F 64.4 °F 58% 29.82 in 10.0 mi SSE 12.7 mph 21.9 mph N/A   Clear
10:55 PM 80.6 °F 82.3 °F 64.4 °F 58% 29.82 in 10.0 mi South 8.1 mph 20.7 mph N/A   Clear
11:15 PM 80.6 °F 82.3 °F 64.4 °F 58% 29.82 in 10.0 mi SSE 12.7 mph 21.9 mph N/A   Clear
11:35 PM 80.6 °F 82.3 °F 64.4 °F 58% 29.82 in 10.0 mi South 6.9 mph 23.0 mph N/A   Clear
11:55 PM 80.6 °F 82.3 °F 64.4 °F 58% 29.82 in 10.0 mi South 10.4 mph 21.9 mph N/A   Clear